Flag for Sweden Weather past 2 weeks in Borås, Sweden

Now
32 °F

Fog.


Feels Like: 22 °F
Forecast: 21 / 33 °F
Wind: 13 mph from South

Location: Gothenburg / Landvetter

Current Time: Jan 26, 2015 at 5:51:03 AM

Latest Report: Jan 26, 2015 at 5:20 AM


Visibility: 0 mi

Pressure: 29.98 "Hg

Humidity: 100%

Dew point: 32 °F

Location of BoråsLocation

Historic Weather in Borås — Graph

°F

Borås temperature yesterday

Maximum temperature yesterday: 32 °F (at 12:20 AM)
Minimum temperature yesterday: 25 °F (at 9:20 AM)
Average temperature yesterday: 29 °F

Past Weeks' High & Low Weather Summary

 TemperatureHumidityPressure
High41 °F (Jan 12, 12:20 PM)100% (Jan 12, 6:20 AM)30.21 "Hg (Jan 12, 6:20 AM)
Low23 °F (Jan 11, 11:50 PM)61% (Jan 11, 4:50 AM)28.97 "Hg (Jan 11, 4:20 AM)
Average33 °F92%29.69 "Hg
* Reported Jan 11 4:20 AM — Jan 26 4:20 AM, Borås, Weather by CustomWeather, © 2014

Note: Actual official high and low records may vary slightly from our data, if they occured in-between our weather recording intervals... More about our weather records

Advertising

Borås weather history for previous 24 hours

 ConditionsComfort  
Time TempWeatherWind HumidityBarometerVisibility
4:20 AM
Jan 26
32 °FFog.10 mph100%30.01 "Hg0 mi
3:50 AM32 °FFog.10 mph100%30.01 "Hg0 mi
3:20 AM32 °FIce fog.13 mph100%30.01 "Hg0 mi
2:50 AM32 °FIce fog.9 mph93%30.04 "Hg0 mi
2:20 AM30 °FIce fog.12 mph100%30.04 "Hg0 mi
1:50 AM30 °FIce fog.10 mph100%30.04 "Hg1 mi
1:20 AM30 °FIce fog.9 mph100%30.07 "Hg0 mi
12:50 AM30 °FIce fog.9 mph93%30.07 "Hg1 mi
12:20 AM28 °FIce fog.9 mph100%30.09 "Hg1 mi
11:50 PM
Jan 25
28 °FIce fog.8 mph93%30.09 "Hg0 mi
11:20 PM27 °FPassing clouds.7 mph100%30.09 "HgN/A
10:20 PM30 °FIce fog.8 mph93%30.12 "Hg2 mi
9:50 PM27 °FIce fog.8 mph100%30.12 "Hg4 mi
9:20 PM25 °FClear.8 mph100%30.12 "Hg10 mi
8:50 PM25 °FLight fog.8 mph93%30.12 "HgN/A
8:20 PM25 °FLight fog.5 mph100%30.15 "HgN/A
7:50 PM25 °FLight fog.6 mph93%30.15 "HgN/A
7:20 PM25 °FClear.7 mph100%30.15 "Hg10 mi
6:50 PM27 °FClear.7 mph93%30.12 "Hg10 mi
6:20 PM25 °FClear.6 mph100%30.12 "Hg10 mi
5:50 PM25 °FLight fog.5 mph100%30.12 "HgN/A
5:20 PM27 °FLight fog.5 mph93%30.12 "HgN/A
4:50 PM28 °FLight fog.3 mph100%30.12 "HgN/A
4:20 PM28 °FLight fog.3 mph100%30.12 "HgN/A
3:50 PM30 °FSunny.3 mph93%30.12 "Hg10 mi
3:20 PM32 °FSunny.No wind93%30.12 "Hg10 mi
2:50 PM32 °FSunny.3 mph87%30.12 "Hg10 mi
2:20 PM32 °FPassing clouds.3 mph93%30.09 "HgN/A
1:50 PM32 °FSunny.5 mph93%30.09 "Hg10 mi
1:20 PM32 °FSunny.3 mph93%30.09 "Hg10 mi
12:50 PM30 °FSunny.3 mph93%30.09 "Hg10 mi
12:20 PM32 °FSunny.3 mph93%30.09 "Hg10 mi
11:50 AM30 °FSunny.3 mph100%30.09 "Hg10 mi
11:20 AM30 °FSunny.2 mph100%30.09 "Hg10 mi
10:50 AM30 °FSunny.2 mph100%30.09 "Hg10 mi
10:20 AM30 °FSunny.3 mph93%30.07 "Hg10 mi
9:50 AM30 °FSunny.3 mph93%30.07 "Hg10 mi
9:20 AM25 °FSunny.1 mph100%30.07 "Hg10 mi
8:50 AM28 °FLight fog.3 mph100%30.04 "HgN/A
8:20 AM27 °FLight fog.3 mph93%30.04 "HgN/A
7:50 AM28 °FIce fog.3 mph100%30.01 "Hg0 mi
7:20 AM27 °FIce fog.5 mph100%30.01 "Hg0 mi
6:50 AM28 °FIce fog.3 mph100%30.01 "Hg0 mi
6:20 AM30 °FIce fog.5 mph100%29.98 "Hg0 mi
5:50 AM30 °FIce fog.5 mph100%29.98 "Hg0 mi
5:20 AM30 °FIce fog.5 mph100%29.98 "Hg0 mi
Weather by CustomWeather, © 2014

See weather overviewHow to use our weather pages